Tracking 30070 objects as of 15-Jan-2025
HD Live streaming from Space Station
objects crossing your sky now

CZ-3B DEB

Track CZ-3B DEB now!


NORAD ID: 40841
Int'l Code: 2011-077W
Perigee: 776.3 km
Apogee: 40,857.9 km
Inclination: 26.2 °
Period: 743.6 minutes
Semi major axis: 27188 km
RCS: Unknown
Launch date: December 19, 2011
Source: People's Republic of China (PRC)
Launch site: Xichang Space Center, China (XSC)

Note: This is SATELLITE DEBRIS
Your satellite tracking list
Your tracking list is empty




NASA's NSSDC Master Catalog

Two Line Element Set (TLE):
1 40841U 11077W   25014.42143285  .00000177  00000-0 -12836-3 0  9993
2 40841  26.2261 143.1878 7371172 121.2197 330.2647  1.93657820 77865
Source of the keplerian elements: AFSPC